Regional Weather Roundup
Issued by NWS

Home | Current Version | Previous Version | Text Only | Print | Product List | Glossary Off
Versions: 1 2 3 4 5 6 7 8 9 10 11 12 13 14 15 16 17 18 19 20 21 22 23 24 25 26 27

000
ASUS45 KTFX 270510
RWRMT
MONTANA REGIONAL WEATHER ROUNDUP
NATIONAL WEATHER SERVICE GREAT FALLS MT
1100 PM MDT TUE JUL 26 2016

NOTE: "FAIR" INDICATES FEW OR NO CLOUDS BELOW 12000 FEET WITH NO
SIGNIFICANT WEATHER AND/OR OBSTRUCTIONS TO VISIBILITY.

MTZ001>007-043-270600-
WEST OF THE DIVIDE

CITY           SKY/WX    TMP DP  RH WIND       PRES   REMARKS
KALISPELL      CLEAR     64  50  60 N8        30.06R
MISSOULA       CLEAR     71  53  52 NW6       30.06R
BUTTE          CLEAR     59  42  53 SE3       30.22S
MULLAN PASS    CLEAR     65  43  44 NE3       30.25R
ANACONDA         N/A     59  48  67 S6        30.17F
DEER LODGE       N/A     61  50  67 CALM      30.19R
EUREKA           N/A     64  54  68 CALM      30.07S
HAMILTON         N/A     64  54  68 CALM      30.10R
LIBBY            N/A     70  52  52 CALM      30.07R
RONAN            N/A     63  56  78 N3        30.11R
$$

MTZ008-052>055-270600-
SOUTHWEST MONTANA

CITY           SKY/WX    TMP DP  RH WIND       PRES   REMARKS
BOZEMAN        CLOUDY    64  47  53 E8        30.15S
DILLON         CLOUDY    60  45  57 S6        30.20S
W YELLOWSTONE  CLOUDY    59  37  44 CALM      30.29S
ENNIS          CLEAR     59  43  55 SE5       30.26S
THREE FORKS      N/A     73   4   7 CALM      30.12S
TWIN BRIDGES     N/A     59  45  59 E3        30.16S
$$

MTZ009-010-012-014-046-048-049-054-270600-
EAST SLOPES AND CENTRAL MONTANA

CITY           SKY/WX    TMP DP  RH WIND       PRES   REMARKS
CUT BANK       PTCLDY    59  56  89 NE8       30.16R
GREAT FALLS    CLOUDY    63  55  75 NE10      30.14S
MALMSTROM AFB  CLOUDY    62  56  82 N8        30.14F
HELENA         CLOUDY    66  56  70 W8        30.10R
CHOTEAU          N/A     57  54  88 NE8       30.19R
$$

MTZ011-013-016-021-045-047-050-051-270600-
NORTH CENTRAL MONTANA

CITY           SKY/WX    TMP DP  RH WIND       PRES   REMARKS
HAVRE          CLOUDY    64  60  87 E13       30.07R
LEWISTOWN      CLOUDY    63  55  75 W7        30.17R
N BAR RANCH      N/A     64  52  63 W6        30.18R
CHINOOK          N/A     63  63 100 SE8       30.08R
$$

MTZ017>020-022>027-061-062-270600-
NORTHEAST MONTANA

CITY           SKY/WX    TMP DP  RH WIND       PRES   REMARKS
GLASGOW        CLOUDY    69  54  58 E18       30.04F
JORDAN           N/A     75  55  49 E9        30.04R
SIDNEY         CLEAR     65  59  81 CALM      30.08S
WOLF POINT     CLOUDY    67  57  70 NE9       30.07S
PLENTYWOOD       N/A     61  57  88 NE7       30.11S
POPLAR           N/A     64  57  77 NE8       30.09R
SCOBEY           N/A     60  50  69 CALM      30.10
$$

MTZ028>42-056>058-270600-
SOUTHCENTRAL AND SOUTHEAST MONTANA

CITY           SKY/WX    TMP DP  RH WIND       PRES   REMARKS
BAKER          CLEAR     63  57  81 NE5       30.10R
BILLINGS       MOCLDY    69  56  62 SW3       30.04F
LIVINGSTON     PTCLDY    68  47  46 NW13      30.16R
MILES CITY     CLEAR     74  56  53 E12       30.03S
FORSYTH          N/A     72  52  49 E3        30.01R
LAUREL           N/A     69  49  48 CALM      30.05S
ROUNDUP          N/A     73  48  41 CALM      29.99R
$$

REGIONAL REPORTS...DAKOTAS

CITY           SKY/WX    TMP DP  RH WIND       PRES   REMARKS
WILLISTON      CLEAR     68  57  68 E7        30.09S
MINOT          CLOUDY    67  60  78 N5        30.05F
DICKINSON      CLEAR     59  56  89 NE3       30.07S
BEACH            N/A     63  63 100 N6        30.13R
CROSBY         MOCLDY    57  57 100 CALM      30.13S
WATFORD CITY     N/A    N/A N/A N/A MISG        N/A
BISMARCK       CLEAR     68  62  81 NE8       30.03F
GRAND FORKS    RAIN      67  61  81 NE12      30.01R
FARGO          CLOUDY    69  65  86 VRB3      30.00R
BUFFALO SD       N/A     65  61  87 E10       30.04R
RAPID CITY     CLOUDY    70  58  65 NE8       30.07R
$$

REGIONAL REPORTS...WYOMING/IDAHO/WASHINGTON

CITY           SKY/WX    TMP DP  RH WIND       PRES   REMARKS
GILLETTE       CLEAR     63  53  70 N3        30.09S
SHERIDAN       CLEAR     68  50  52 SW8       30.08S
BUFFALO WY     CLEAR     68  51  54 W6        30.15F
CODY           CLOUDY    72  41  33 NW7       30.17S
YELLOWSTONE LA   N/A     54  37  52 CALM      30.38S
IDAHO FALLS    CLEAR     62  46  55 N9        30.12R
SALMON         CLEAR     61  48  63 CALM      30.12R
BOISE          CLEAR     86  40  19 CALM      29.94R
SPOKANE        MOCLDY    72  55  55 NE10      30.03R
$$

REGIONAL REPORTS...ALBERTA

CITY           SKY/WX    TMP DP  RH WIND       PRES   REMARKS
EDMONTON       PTCLDY    63  57  82 S3        30.05R
CALGARY        MOCLDY    64  55  72 VRB2      30.13R
LETHBRIDGE     CLEAR     59  59 100 SE6       30.11S
MEDICINE HAT   PTCLDY    61  61 100 W8        30.07R
WATERTON GATE    N/A     54  52  94 SW3         N/A
CARDSTON         N/A     61  57  88 SW3         N/A
MILK RIVER       N/A     55  55 100 W1          N/A
ONEFOUR          N/A     61  55  82 N3          N/A
$$

REGIONAL REPORTS...SASKATCHEWAN

CITY           SKY/WX    TMP DP  RH WIND       PRES   REMARKS
SWIFT CURRENT  CLEAR     61  57  88 SE12      30.12R
SASKATOON      PTCLDY    63  52  67 S8        30.15R
VAL MARIE        N/A     61  57  88 NE7         N/A
ROCKGLEN         N/A     59  54  82 E2          N/A
ASSINIBOIA       N/A     63  59  88 SE10        N/A
$$




USA.gov is the U.S. government's official web portal to all federal, state and local government web resources and services.